When you browse on this site, cookies collect data to enhance your experience and personalize the content and advertising you see.
Visit our Privacy Policy to learn more. By continuing to use the site, you agree to this use of cookies and data.
  • In Lithuania
  • List of Countries
  • For 7 days
  • Water Temperature
  • Satellite Maps
  • Weather Map
  • Weather Widgets
  • user-avatar
    Login

    Hourly Weather Mérida

    Today, 15 December, Saturday

    Time Temperature Precipitation Wind Pressure Humidity
    00:00 +13°C° 0 mm 2 mps 597 mmHg 73%
    01:00 +13°C° 0 mm 2 mps 596 mmHg 71%
    02:00 +13°C° 0 mm 2 mps 596 mmHg 69%
    03:00 +12°C° 0 mm 2 mps 596 mmHg 68%
    04:00 +12°C° 0 mm 2 mps 596 mmHg 66%
    05:00 +13°C° 0 mm 2 mps 597 mmHg 64%
    06:00 +14°C° 0 mm 2 mps 597 mmHg 63%
    07:00 +14°C° 0 mm 2 mps 598 mmHg 61%
    08:00 +16°C° 0 mm 2 mps 599 mmHg 59%
    09:00 +18°C° 0 mm 2 mps 600 mmHg 57%
    10:00 +19°C° 0 mm 2 mps 601 mmHg 56%
    11:00 +20°C° 0 mm 2 mps 600 mmHg 56%
    12:00 +20°C° 0 mm 2 mps 600 mmHg 56%
    13:00 +20°C° 0 mm 2 mps 599 mmHg 56%
    14:00 +20°C° 0 mm 2 mps 599 mmHg 57%
    15:00 +19°C° 0 mm 2 mps 598 mmHg 58%
    16:00 +19°C° 0 mm 2 mps 597 mmHg 59%
    17:00 +17°C° 0 mm 2 mps 597 mmHg 65%
    18:00 +15°C° 0 mm 2 mps 596 mmHg 70%
    19:00 +14°C° 0 mm 2 mps 596 mmHg 76%
    20:00 +14°C° 0 mm 2 mps 596 mmHg 70%
    21:00 +13°C° 0 mm 2 mps 596 mmHg 65%
    22:00 +13°C° 0 mm 2 mps 597 mmHg 59%
    23:00 +13°C° 0 mm 2 mps 596 mmHg 56%

    Tomorrow, 16 December, Sunday

    Time Temperature Precipitation Wind Pressure Humidity
    00:00 +13°C° 0 mm 2 mps 596 mmHg 53%
    01:00 +12°C° 0 mm 2 mps 596 mmHg 50%
    02:00 +12°C° 0 mm 2 mps 596 mmHg 50%
    03:00 +12°C° 0 mm 2 mps 596 mmHg 50%
    04:00 +12°C° 0 mm 2 mps 596 mmHg 51%
    05:00 +12°C° 0 mm 2 mps 596 mmHg 50%
    06:00 +13°C° 0 mm 2 mps 597 mmHg 49%
    07:00 +14°C° 0 mm 2 mps 598 mmHg 48%
    08:00 +16°C° 0 mm 2 mps 599 mmHg 46%
    09:00 +18°C° 0 mm 2 mps 600 mmHg 44%
    10:00 +20°C° 0 mm 2 mps 601 mmHg 42%
    11:00 +21°C° 0 mm 2 mps 601 mmHg 40%
    12:00 +21°C° 0 mm 2 mps 600 mmHg 39%
    13:00 +23°C° 0 mm 2 mps 600 mmHg 37%
    14:00 +21°C° 0 mm 2 mps 599 mmHg 39%
    15:00 +21°C° 0 mm 2 mps 598 mmHg 41%
    16:00 +20°C° 0 mm 2 mps 597 mmHg 44%
    17:00 +18°C° 0 mm 2 mps 596 mmHg 48%
    18:00 +15°C° 0 mm 2 mps 596 mmHg 53%
    19:00 +13°C° 0 mm 2 mps 595 mmHg 57%
    20:00 +13°C° 0 mm 2 mps 595 mmHg 50%
    21:00 +13°C° 0 mm 2 mps 596 mmHg 43%
    22:00 +12°C° 0 mm 2 mps 596 mmHg 36%
    23:00 +12°C° 0 mm 2 mps 596 mmHg 34%

    Day after tomorrow, 17 December, Monday

    Time Temperature Precipitation Wind Pressure Humidity
    00:00 +12°C° 0 mm 2 mps 595 mmHg 31%
    01:00 +12°C° 0 mm 2 mps 595 mmHg 29%
    02:00 +12°C° 0 mm 2 mps 595 mmHg 33%
    03:00 +10°C° 0 mm 2 mps 595 mmHg 36%
    04:00 +10°C° 0 mm 2 mps 594 mmHg 40%
    05:00 +12°C° 0 mm 2 mps 595 mmHg 43%
    06:00 +13°C° 0 mm 2 mps 596 mmHg 46%
    07:00 +14°C° 0 mm 2 mps 597 mmHg 49%
    08:00 +16°C° 0 mm 2 mps 598 mmHg 48%
    09:00 +18°C° 0 mm 2 mps 599 mmHg 46%
    10:00 +20°C° 0 mm 2 mps 600 mmHg 45%
    11:00 +21°C° 0 mm 2 mps 600 mmHg 45%
    12:00 +21°C° 0 mm 2 mps 599 mmHg 45%
    13:00 +23°C° 0 mm 2 mps 598 mmHg 45%
    14:00 +21°C° 0 mm 2 mps 598 mmHg 48%
    15:00 +20°C° 0 mm 2 mps 597 mmHg 52%
    16:00 +19°C° 0 mm 2 mps 596 mmHg 55%
    17:00 +18°C° 0 mm 2 mps 596 mmHg 62%
    18:00 +16°C° 0 mm 1 mps 595 mmHg 69%
    19:00 +14°C° 0 mm 1 mps 595 mmHg 75%
    20:00 +14°C° 0 mm 1 mps 595 mmHg 74%
    21:00 +14°C° 0 mm 1 mps 596 mmHg 73%
    22:00 +14°C° 0 mm 1 mps 596 mmHg 72%
    23:00 +13°C° 0 mm 1 mps 596 mmHg 73%

    18 December, Tuesday

    Time Temperature Precipitation Wind Pressure Humidity
    00:00 +13°C° 0 mm 2 mps 595 mmHg 73%
    01:00 +13°C° 0 mm 2 mps 595 mmHg 73%
    02:00 +13°C° 0 mm 2 mps 595 mmHg 70%
    03:00 +12°C° 0 mm 2 mps 595 mmHg 66%
    04:00 +12°C° 0 mm 2 mps 594 mmHg 63%
    05:00 +13°C° 0 mm 2 mps 595 mmHg 62%
    06:00 +14°C° 0 mm 2 mps 596 mmHg 61%
    07:00 +14°C° 0 mm 2 mps 597 mmHg 60%
    08:00 +16°C° 0 mm 2 mps 598 mmHg 59%
    09:00 +18°C° 0 mm 2 mps 599 mmHg 58%
    10:00 +20°C° 0 mm 2 mps 599 mmHg 57%
    11:00 +20°C° 0 mm 2 mps 599 mmHg 57%
    12:00 +20°C° 0 mm 2 mps 598 mmHg 57%
    13:00 +20°C° 0 mm 2 mps 597 mmHg 57%
    14:00 +20°C° 0 mm 2 mps 597 mmHg 57%
    15:00 +20°C° 0 mm 2 mps 596 mmHg 56%
    16:00 +19°C° 0 mm 2 mps 596 mmHg 56%
    17:00 +18°C° 0 mm 2 mps 595 mmHg 61%
    18:00 +16°C° 0 mm 1 mps 595 mmHg 67%
    19:00 +14°C° 0 mm 1 mps 595 mmHg 72%
    20:00 +14°C° 0 mm 2 mps 595 mmHg 69%
    21:00 +14°C° 0 mm 2 mps 596 mmHg 66%
    22:00 +14°C° 0 mm 2 mps 596 mmHg 62%
    23:00 +13°C° 0 mm 2 mps 596 mmHg 60%

    19 December, Wednesday

    Time Temperature Precipitation Wind Pressure Humidity
    00:00 +13°C° 0 mm 2 mps 595 mmHg 57%
    01:00 +13°C° 0 mm 2 mps 595 mmHg 54%
    02:00 +13°C° 0 mm 2 mps 595 mmHg 55%
    03:00 +12°C° 0 mm 2 mps 595 mmHg 56%
    04:00 +12°C° 0 mm 2 mps 594 mmHg 57%
    05:00 +13°C° 0 mm 2 mps 595 mmHg 55%
    06:00 +14°C° 0 mm 2 mps 596 mmHg 54%
    07:00 +14°C° 0 mm 2 mps 597 mmHg 53%
    08:00 +16°C° 0 mm 2 mps 598 mmHg 52%
    09:00 +18°C° 0 mm 2 mps 599 mmHg 50%
    10:00 +20°C° 0 mm 2 mps 600 mmHg 49%
    11:00 +21°C° 0 mm 2 mps 599 mmHg 49%
    12:00 +21°C° 0 mm 2 mps 598 mmHg 49%
    13:00 +23°C° 0 mm 2 mps 598 mmHg 49%
    14:00 +21°C° 0 mm 2 mps 597 mmHg 51%
    15:00 +20°C° 0 mm 2 mps 596 mmHg 53%
    16:00 +20°C° 0 mm 2 mps 596 mmHg 55%
    17:00 +18°C° 0 mm 2 mps 595 mmHg 61%
    18:00 +16°C° 0 mm 2 mps 595 mmHg 66%
    19:00 +14°C° 0 mm 1 mps 595 mmHg 71%
    20:00 +14°C° 0 mm 2 mps 595 mmHg 67%
    21:00 +14°C° 0 mm 2 mps 595 mmHg 62%
    22:00 +14°C° 0 mm 2 mps 595 mmHg 57%
    23:00 +14°C° 0 mm 2 mps 595 mmHg 53%

    20 December, Thursday

    Time Temperature Precipitation Wind Pressure Humidity
    00:00 +13°C° 0 mm 2 mps 595 mmHg 50%
    01:00 +13°C° 0 mm 2 mps 594 mmHg 47%
    02:00 +13°C° 0 mm 2 mps 594 mmHg 49%
    03:00 +13°C° 0 mm 2 mps 594 mmHg 51%
    04:00 +13°C° 0 mm 2 mps 594 mmHg 53%
    05:00 +13°C° 0 mm 2 mps 595 mmHg 55%
    06:00 +14°C° 0 mm 2 mps 596 mmHg 57%
    07:00 +15°C° 0 mm 2 mps 597 mmHg 59%
    08:00 +17°C° 0 mm 2 mps 598 mmHg 58%
    09:00 +18°C° 0 mm 2 mps 598 mmHg 56%
    10:00 +20°C° 0 mm 2 mps 599 mmHg 54%
    11:00 +21°C° 0 mm 2 mps 599 mmHg 52%
    12:00 +21°C° 0 mm 2 mps 598 mmHg 51%
    13:00 +23°C° 0 mm 2 mps 598 mmHg 49%
    14:00 +21°C° 0 mm 2 mps 597 mmHg 50%
    15:00 +21°C° 0 mm 2 mps 596 mmHg 52%
    16:00 +20°C° 0 mm 2 mps 596 mmHg 53%
    17:00 +18°C° 0 mm 2 mps 595 mmHg 58%
    18:00 +17°C° 0 mm 2 mps 595 mmHg 62%
    19:00 +15°C° 0 mm 1 mps 595 mmHg 67%
    20:00 +15°C° 0 mm 2 mps 595 mmHg 63%
    21:00 +15°C° 0 mm 2 mps 595 mmHg 60%
    22:00 +14°C° 0 mm 2 mps 596 mmHg 56%
    23:00 +14°C° 0 mm 2 mps 595 mmHg 56%
    Show more